TimeCDT,TemperatureF,Dew PointF,Humidity,Sea Level PressureIn,VisibilityMPH,Wind Direction,Wind SpeedMPH,Gust SpeedMPH,PrecipitationIn,Events,Conditions,WindDirDegrees,DateUTC
12:54 AM,55.9,54.0,93,30.01,9.0,Calm,Calm,-,0.09,Rain,Light Rain,0,2013-09-15 05:54:00
1:54 AM,55.0,53.1,93,30.03,6.0,SW,4.6,-,0.08,Rain,Rain,230,2013-09-15 06:54:00
2:54 AM,54.0,53.1,97,30.01,7.0,SSE,3.5,-,0.06,Rain,Light Rain,160,2013-09-15 07:54:00
3:54 AM,54.0,53.1,97,29.99,10.0,SE,3.5,-,0.01,,Overcast,130,2013-09-15 08:54:00
4:54 AM,54.0,53.1,97,29.97,10.0,SSE,5.8,-,N/A,,Overcast,150,2013-09-15 09:54:00
5:19 AM,53.6,53.6,100,29.97,10.0,SSE,4.6,-,N/A,,Overcast,150,2013-09-15 10:19:00
5:54 AM,54.0,53.1,97,29.97,8.0,SE,3.5,-,N/A,,Unknown,140,2013-09-15 10:54:00
6:03 AM,53.6,53.6,100,29.97,8.0,ESE,3.5,-,N/A,,Overcast,120,2013-09-15 11:03:00
6:30 AM,53.6,53.6,100,29.98,2.5,ESE,3.5,-,0.01,Rain,Rain,120,2013-09-15 11:30:00
6:54 AM,54.0,53.1,97,29.99,3.0,ESE,3.5,-,0.05,Rain,Light Rain,110,2013-09-15 11:54:00
7:22 AM,53.6,53.6,100,29.99,4.0,ENE,3.5,-,0.04,Rain,Rain,60,2013-09-15 12:22:00
7:41 AM,53.6,53.6,100,30.00,4.0,ENE,4.6,-,0.09,Rain,Rain,60,2013-09-15 12:41:00
7:54 AM,55.0,53.1,93,30.00,6.0,ENE,6.9,-,0.11,Rain,Rain,70,2013-09-15 12:54:00
8:24 AM,55.4,53.6,94,30.00,5.0,ENE,4.6,-,0.08,Rain,Light Rain,70,2013-09-15 13:24:00
8:54 AM,55.0,53.1,93,30.02,3.0,East,5.8,-,0.10,Rain,Rain,80,2013-09-15 13:54:00
8:57 AM,55.4,53.6,94,30.01,2.5,East,5.8,-,0.02,Rain,Heavy Rain,80,2013-09-15 13:57:00
9:05 AM,55.4,53.6,94,30.01,3.0,East,5.8,-,0.04,Rain,Rain,80,2013-09-15 14:05:00
9:27 AM,55.4,53.6,94,30.02,3.0,East,5.8,-,0.14,Rain,Heavy Rain,90,2013-09-15 14:27:00
9:32 AM,55.4,53.6,94,30.02,4.0,East,6.9,-,0.15,Rain,Rain,80,2013-09-15 14:32:00
9:54 AM,55.0,54.0,96,30.03,10.0,East,5.8,-,0.16,Rain,Light Rain,80,2013-09-15 14:54:00
10:08 AM,55.4,53.6,94,30.03,10.0,East,5.8,-,0.00,,Overcast,90,2013-09-15 15:08:00
10:27 AM,55.4,53.6,94,30.03,10.0,East,8.1,-,0.00,,Overcast,90,2013-09-15 15:27:00
10:54 AM,57.0,55.0,93,30.04,10.0,East,6.9,-,0.00,,Overcast,90,2013-09-15 15:54:00
11:07 AM,57.2,53.6,88,30.04,10.0,East,8.1,-,N/A,,Overcast,100,2013-09-15 16:07:00
11:22 AM,57.2,55.4,94,30.04,10.0,East,5.8,-,N/A,,Overcast,90,2013-09-15 16:22:00
11:54 AM,59.0,54.0,83,30.05,10.0,NE,4.6,-,N/A,,Overcast,50,2013-09-15 16:54:00
12:08 PM,57.2,53.6,88,30.05,10.0,NE,6.9,-,N/A,,Overcast,50,2013-09-15 17:08:00
12:54 PM,60.1,54.0,80,30.07,10.0,ENE,6.9,-,N/A,,Overcast,60,2013-09-15 17:54:00
1:54 PM,63.0,53.1,70,30.08,10.0,NNE,9.2,-,N/A,,Overcast,30,2013-09-15 18:54:00
2:13 PM,62.6,53.6,72,30.08,10.0,NNE,8.1,-,N/A,,Overcast,30,2013-09-15 19:13:00
2:28 PM,62.6,53.6,72,30.08,10.0,NNE,11.5,-,N/A,,Overcast,30,2013-09-15 19:28:00
2:54 PM,66.0,53.1,63,30.09,10.0,NNE,9.2,-,N/A,,Mostly Cloudy,30,2013-09-15 19:54:00
3:54 PM,68.0,52.0,56,30.10,10.0,NNE,5.8,-,N/A,,Mostly Cloudy,20,2013-09-15 20:54:00
4:54 PM,64.9,53.1,65,30.12,10.0,North,9.2,-,N/A,,Overcast,10,2013-09-15 21:54:00
5:06 PM,64.4,53.6,68,30.13,10.0,NNE,6.9,-,N/A,,Overcast,30,2013-09-15 22:06:00
5:20 PM,64.4,53.6,68,30.13,10.0,NNE,10.4,-,N/A,,Overcast,20,2013-09-15 22:20:00
5:54 PM,61.0,54.0,78,30.16,10.0,North,12.7,-,0.00,Rain,Light Rain,10,2013-09-15 22:54:00
6:54 PM,60.1,53.1,78,30.19,10.0,NNE,15.0,20.7,0.00,,Overcast,20,2013-09-15 23:54:00
7:36 PM,59.0,51.8,77,30.20,10.0,North,15.0,-,N/A,,Overcast,10,2013-09-16 00:36:00
7:49 PM,57.2,50.0,77,30.21,10.0,NNE,17.3,24.2,N/A,,Overcast,20,2013-09-16 00:49:00
7:54 PM,57.9,50.0,75,30.22,10.0,NNE,17.3,24.2,N/A,,Overcast,20,2013-09-16 00:54:00
8:01 PM,57.2,50.0,77,30.22,10.0,NNE,18.4,24.2,N/A,,Overcast,20,2013-09-16 01:01:00
8:54 PM,55.9,48.0,75,30.25,10.0,NNE,10.4,23.0,N/A,,Overcast,30,2013-09-16 01:54:00
9:54 PM,55.0,45.0,69,30.28,10.0,NE,11.5,-,N/A,,Overcast,50,2013-09-16 02:54:00
10:54 PM,53.1,44.1,71,30.30,10.0,NE,9.2,-,N/A,,Overcast,50,2013-09-16 03:54:00
11:54 PM,51.1,42.1,71,30.32,10.0,ENE,11.5,-,N/A,,Overcast,60,2013-09-16 04:54:00